Theta_e
303 302 301 300 300 301 301 301 302 301 301 300 299 299 298 298 298 297 296 295 295 295
303 302 300 301 301 301 302 301 301 300 300 299 299 299 298 297 296 296 296 295 295 294
302 303 302 302 301 301 301 300 300 300 300 299 298 298 297 296 296 295 295 295 294 294
301 302 302 301 301 301 301 300 300 299 299 298 297 297 296 296 295 294 294 294 294 294
301 301 301 301 301 301 300 301 300 300 299 298 297 297 295 294 295 294 294 294 292 292
299 300 300 300 300 301 300 300 300 299 299 298 297 295 295 295 295 294 294 294 292 291
298 298 299 299 300 300 300 299 299 299 298 298 297 296 295 295 294 294 293 293 292 291
295 297 298 298 298 299 299 298 298 298 297 297 296 295 294 293 293 293 292 291 291 291
290 293 294 296 296 297 296 297 297 296 295 295 294 293 293 293 292 292 290 289 288 289
285 286 287 290 293 293 294 295 294 292 292 290 293 293 293 291 291 290 289 288 287 287
281 282 285 285 287 289 291 288 286 286 286 287 288 292 292 290 289 288 287 287 287 286
279 280 282 283 284 285 285 285 286 286 286 287 287 291 291 290 288 287 286 286 286 286
277 278 281 282 283 285 284 284 285 285 286 286 287 290 291 290 288 286 286 285 285 284
275 277 279 280 284 285 285 284 285 285 286 286 286 287 290 291 287 287 286 285 284 284
Wind_Speed
18 13 13 16 13 13 12 13 15 14 13 12 11 10 9 7 6 7 6 8 6 4
16 17 14 16 15 13 14 12 15 15 14 13 12 12 11 7 9 8 7 7 7 4
15 16 14 14 16 16 14 15 16 16 15 14 13 13 12 9 9 9 7 6 8 7
12 13 13 12 14 14 14 15 16 16 16 15 15 14 12 11 11 11 10 8 9 9
10 11 12 12 13 13 15 15 16 16 15 15 14 14 13 13 12 12 12 11 10 9
8 9 11 10 11 12 13 13 14 15 16 15 15 15 14 13 12 12 12 11 11 10
6 7 8 9 10 11 12 13 14 15 15 16 15 15 14 13 12 11 11 10 10 10
5 4 6 7 8 8 10 11 12 12 13 13 14 12 15 13 13 12 11 9 9 8
12 8 5 3 4 7 7 8 9 10 12 13 10 15 20 17 12 12 12 11 9 8
13 11 9 9 5 3 6 7 8 8 9 10 11 17 21 19 11 11 10 10 9 7
13 12 10 8 7 5 2 1 2 2 2 4 5 15 21 20 8 8 9 10 11 11
14 13 12 11 9 6 3 3 3 2 5 7 4 11 17 17 9 8 9 9 9 10
12 13 12 12 11 8 5 4 4 6 6 6 7 14 19 18 7 9 7 7 8 13
13 13 11 11 10 10 7 6 5 5 6 6 7 8 20 23 10 9 8 8 9 8
Wind_Direction
194 190 182 180 178 181 179 179 176 176 173 170 168 167 164 174 174 174 183 184 191 178
196 195 187 181 181 180 176 174 170 174 171 169 172 171 170 177 175 177 184 193 186 184
197 199 189 182 184 180 175 170 170 172 174 172 172 172 174 174 176 180 188 187 182 191
201 201 193 188 187 179 170 169 172 174 174 175 174 175 177 176 175 184 186 191 189 197
201 199 202 195 190 180 177 175 176 175 177 176 175 176 177 179 181 187 193 189 191 196
213 197 202 197 194 183 179 177 176 174 178 179 178 177 184 187 184 190 195 193 191 190
217 213 207 201 197 188 184 178 180 181 181 183 181 181 182 184 185 189 196 194 193 191
351 262 228 212 198 191 194 188 186 181 183 182 181 182 179 181 185 185 190 190 191 192
12 11 341 265 217 200 196 191 183 184 183 184 190 184 181 178 183 186 185 185 187 185
12 14 5 349 317 233 208 198 193 186 182 192 195 180 185 182 183 183 184 179 177 179
5 1 358 359 353 340 315 216 151 163 165 182 203 187 187 184 172 177 180 180 181 181
359 350 357 359 350 339 306 278 226 163 180 198 194 199 191 181 185 185 188 184 181 180
355 344 346 351 347 337 317 275 249 240 224 211 209 197 196 188 186 196 190 179 190 187
350 340 343 342 345 344 336 317 287 260 238 221 209 206 203 198 196 201 190 194 195 193